Overview Statistics Trail Chart Weather Telemetry Raw packets
 

This is the latest recevied weather packets stored in our database for station/object AG1T-20. If no packets are shown the sender has not sent any weather packets the latest 10 day(s).

<< 39 40 41 42 43 44 45 >>
Time Temp. Humidity Pressure Rain* Wind** Luminosity Snow
1788012005 16.67° C 84% 1021.2 hPa 0 mm - 3 W/m² -
1788011405 17.22° C 82% 1020.6 hPa 0 mm - 7 W/m² -
1788010805 17.22° C 83% 1020.6 hPa 0 mm - 14 W/m² -
1788010214 17.22° C 82% 1020.6 hPa 0 mm - 9 W/m² -
1788009605 17.22° C 81% 1020.6 hPa 0 mm - 6 W/m² -
1788009005 17.22° C 78% 1020.6 hPa 0 mm - 3 W/m² -
1788008405 17.78° C 77% 1020.6 hPa 0 mm - 1 W/m² -
1788007805 17.78° C 74% 1020.5 hPa 0 mm - 0 W/m² -
1788007205 18.33° C 73% 1020.5 hPa 0 mm - 0 W/m² -
1788006605 18.33° C 71% 1020.5 hPa 0 mm - 0 W/m² -
1788006005 18.33° C 71% 1020.5 hPa 0 mm - 0 W/m² -
1788005418 18.33° C 73% 1020.5 hPa 0 mm - 0 W/m² -
1788004805 17.78° C 76% 1020.5 hPa 0 mm - 0 W/m² -
1788004205 18.33° C 75% 1020 hPa 0 mm - 0 W/m² -
1788003605 17.78° C 76% 1020 hPa 0 mm - 0 W/m² -
1788003005 18.33° C 75% 1020 hPa 0 mm - 0 W/m² -
1788002405 18.33° C 76% 1020 hPa 0 mm - 0 W/m² -
1788001805 17.78° C 78% 1020 hPa 0 mm - 0 W/m² -
1788001205 17.78° C 79% 1020 hPa 0 mm - 0 W/m² -
1788000605 17.78° C 77% 1019.9 hPa 0.25 mm - 0 W/m² -
1788000005 18.33° C 75% 1019.9 hPa 0.25 mm - 0 W/m² -
1787999405 18.33° C 75% 1019.9 hPa 0.25 mm - 0 W/m² -
1787998805 17.78° C 77% 1019.9 hPa 0.25 mm - 0 W/m² -
1787998219 18.33° C 74% 1019.9 hPa 0.25 mm - 0 W/m² -
1787997605 18.33° C 75% 1019.9 hPa 0.25 mm - 0 W/m² -

* Rain latest hour (hover to see other rain measurements)
** Current wind speed in m/s (hover to see current wind gust speed)